CAPE
602 514 553 752 852 611 350 157 57 7 0 0 0 0 0 0 0 0 17 43 109 160 146 115 60 105 0 0 0 0 0 0
85 658 692 606 699 911 851 630 344 86 23 17 33 17 15 4 0 7 40 83 144 199 217 57 18 0 0 0 0 0 0 0
0 0 484 769 680 926 1099 1081 763 321 195 132 88 95 94 117 136 122 90 111 213 266 182 59 0 0 0 0 0 0 0 0
0 0 0 276 714 648 1050 1170 1105 862 593 337 296 282 191 449 412 332 184 194 237 296 132 41 0 0 0 0 0 0 0 0
0 0 0 0 69 511 432 897 1098 1092 884 735 664 673 574 503 453 456 428 270 254 251 93 4 0 0 0 0 0 0 0 0
0 0 0 0 0 0 31 385 703 976 1086 1018 820 789 764 608 502 602 513 287 249 199 16 0 0 0 0 0 0 0 0 0
0 0 0 0 0 0 0 5 401 725 980 1136 996 946 918 720 508 586 572 330 197 43 0 0 0 0 0 0 0 0 0 0
0 0 0 0 0 0 0 3 133 409 648 1113 1208 1040 946 850 602 555 591 182 59 0 0 0 0 0 0 0 0 0 0 0
0 0 0 0 0 0 0 6 163 255 437 736 1094 1200 1041 915 638 615 491 263 52 0 0 0 0 0 0 0 0 0 0 0
0 0 0 0 0 0 0 0 14 138 328 511 762 1061 1138 1002 784 500 375 121 1 0 0 0 0 0 0 0 0 0 0 0
0 0 0 0 0 0 0 0 0 0 34 414 544 742 998 1017 718 373 251 10 0 0 0 0 0 0 0 0 0 0 0 0
0 0 0 0 0 0 0 0 0 0 0 126 543 650 777 777 653 269 97 0 0 0 0 0 0 0 0 0 0 0 0 0
0 0 0 0 0 0 0 0 0 0 0 76 635 774 779 664 411 142 0 0 0 0 0 0 0 0 0 0 0 0 0 0
0 0 0 0 0 0 0 0 13 301 300 488 819 891 867 718 129 0 0 0 0 0 0 0 0 0 0 0 0 0 0 0
0 0 0 0 0 0 0 0 2 545 1062 1086 1052 970 658 319 1 0 0 0 0 0 0 0 0 0 0 0 0 0 0 0
0 0 0 0 0 0 0 0 0 134 652 1120 987 260 22 0 0 0 0 0 0 0 0 0 0 0 0 0 0 0 0 0
0 0 0 0 0 0 0 0 0 10 248 638 636 3 0 0 0 0 0 0 0 0 1 3 1 0 0 0 0 0 0 0
0 0 0 0 0 0 0 0 0 0 30 130 43 0 0 0 1 0 0 0 2 3 4 1 0 0 0 0 0 0 0 0
0 0 0 0 0 0 0 0 0 0 4 61 1 0 0 0 2 1 1 1 4 5 2 1 0 0 0 0 0 0 0 0
CIN
-308 -348 -437 -484 -533 -570 -620 -740 -871 -976 0 0 0 0 0 0 0 0 -612 -547 -459 -377 -351 -338 -341 -295 0 0 0 0 0 0
-416 -307 -327 -418 -512 -490 -534 -563 -660 -790 -885 -800 -744 -792 -733 -738 0 -625 -574 -484 -430 -369 -335 -395 -314 0 0 0 0 0 0 0
0 0 -382 -370 -498 -535 -497 -508 -535 -671 -684 -727 -664 -644 -631 -551 -497 -516 -511 -465 -421 -368 -370 -425 -74 0 0 0 0 0 0 0
0 0 0 -435 -406 -525 -527 -557 -543 -583 -587 -554 -530 -505 -574 -424 -454 -449 -504 -482 -453 -364 -418 -459 0 0 0 0 0 0 0 0
0 0 0 0 -557 -402 -546 -484 -480 -418 -457 -480 -487 -511 -484 -575 -518 -462 -448 -500 -454 -404 -447 -321 0 0 0 0 0 0 0 0
0 0 0 0 0 0 -463 -554 -492 -445 -410 -397 -409 -415 -502 -488 -496 -438 -423 -499 -476 -450 -408 0 0 0 0 0 0 0 0 0
0 0 0 0 0 0 0 -149 -503 -461 -394 -359 -367 -400 -385 -387 -492 -481 -451 -480 -510 -577 0 0 0 0 0 0 0 0 0 0
0 0 0 0 0 0 0 -172 -455 -449 -393 -304 -334 -397 -386 -387 -455 -476 -424 -582 -633 -2 0 0 0 0 0 0 0 0 0 0
0 0 0 0 0 0 0 -176 -481 -466 -445 -388 -348 -325 -349 -379 -464 -473 -463 -531 -650 -89 0 0 0 0 0 0 0 0 0 0
0 0 0 0 0 0 0 0 -565 -530 -457 -481 -413 -323 -322 -371 -403 -451 -481 -596 -162 0 0 0 0 0 0 0 0 0 0 0
0 0 0 0 0 0 0 0 0 0 -378 -483 -487 -486 -376 -346 -385 -518 -544 -391 0 0 0 0 0 0 0 0 0 0 0 0
0 0 0 0 0 0 0 0 0 0 0 -656 -480 -506 -459 -402 -407 -562 -671 0 0 0 0 0 0 0 0 0 0 0 0 0
0 0 0 0 0 0 0 0 0 0 0 -582 -419 -392 -415 -429 -512 -602 0 0 0 0 0 0 0 0 0 0 0 0 0 0
0 0 0 0 0 0 0 0 -336 -279 -315 -343 -302 -311 -342 -413 -649 0 0 0 0 0 0 0 0 0 0 0 0 0 0 0
0 0 0 0 0 0 0 0 -178 -125 -81 -130 -161 -197 -294 -436 -140 0 0 0 0 0 0 0 0 0 0 0 0 0 0 0
0 0 0 0 0 0 0 0 0 -235 -73 -26 -74 -315 -528 0 0 0 0 0 0 0 0 0 0 0 0 0 0 0 0 0
0 0 0 0 0 0 0 0 0 -291 -167 -39 -50 -62 0 0 0 0 0 0 0 0 0 0 0 0 0 0 0 0 0 0
0 0 0 0 0 0 0 0 0 0 -332 -200 -282 0 0 0 0 0 0 0 0 0 0 0 0 0 0 0 0 0 0 0
0 0 0 0 0 0 0 0 0 0 -380 -310 -83 0 0 0 0 0 0 0 0 0 0 0 0 0 0 0 0 0 0 0
Wind_Speed
18 18 16 15 14 13 13 13 15 14 9 8 7 7 9 8 9 9 10 10 11 9 7 6 6 5 5 4 5 3 3 5
13 16 17 15 13 15 17 16 16 12 12 12 11 14 10 10 10 12 12 11 12 11 8 7 7 8 8 7 4 5 2 4
12 11 15 16 17 19 18 19 18 16 13 13 10 10 10 9 8 11 13 14 13 12 11 10 10 7 6 8 6 4 2 4
9 8 10 14 16 17 20 22 21 19 18 10 5 3 2 9 12 12 14 15 14 14 13 11 11 10 10 11 9 8 5 1
6 7 8 9 14 14 14 16 17 16 16 15 20 17 14 15 12 11 12 14 14 13 12 12 13 10 10 10 8 5 6 5
11 10 7 9 10 12 13 11 13 16 18 20 14 17 15 8 10 14 13 11 14 14 13 13 12 9 9 11 8 7 4 6
10 9 5 5 8 8 8 8 15 15 17 20 21 22 18 12 12 12 12 9 10 13 13 13 12 11 11 10 10 10 6 5
12 10 12 8 4 8 9 7 12 12 16 19 23 23 21 20 16 13 14 11 10 14 15 13 10 11 9 8 8 8 8 7
17 14 9 12 12 7 9 9 12 11 15 20 21 22 15 15 16 14 13 13 13 12 12 11 10 10 8 8 6 4 6 6
17 17 15 12 13 11 9 9 12 13 17 19 20 19 21 18 18 14 13 12 10 11 14 13 12 13 12 10 7 7 6 6
15 14 18 17 16 14 10 10 13 14 16 18 18 21 21 19 15 18 17 12 12 13 14 13 14 13 12 12 9 8 8 5
17 15 14 16 17 16 14 10 10 15 16 17 19 18 19 17 17 17 15 12 13 14 13 13 13 13 13 12 11 12 13 10
17 14 16 16 15 15 16 14 14 13 13 12 15 15 16 18 16 15 13 13 11 12 13 13 13 14 14 13 13 7 13 12
14 15 13 15 17 16 16 15 15 14 11 8 11 14 15 15 13 12 11 13 14 14 14 16 15 16 16 13 13 13 9 10
10 14 12 14 16 16 18 17 14 13 7 6 9 11 10 9 9 11 12 12 14 14 14 15 15 16 16 17 17 16 16 12
12 11 13 13 14 16 18 20 15 9 9 6 7 5 7 9 10 11 12 13 13 16 16 15 17 17 15 20 18 16 15 14
9 12 13 14 13 14 18 19 19 8 8 7 4 7 11 12 11 13 14 14 14 16 16 17 18 12 22 23 21 18 18 16
9 11 11 12 13 13 15 19 20 14 10 7 4 5 8 9 12 13 14 15 16 16 17 17 17 17 27 25 22 14 13 13
8 11 13 14 11 12 12 13 17 17 12 8 6 6 5 8 10 12 13 14 16 16 17 17 17 16 27 26 22 14 12 12
Wind_Direction
236 231 227 224 211 206 205 205 202 192 198 200 198 202 207 204 205 204 197 205 199 197 201 204 179 176 167 165 145 105 147 143
243 239 232 217 204 202 204 200 201 187 192 200 202 211 208 213 207 205 200 203 201 200 197 192 180 183 179 172 119 139 130 155
263 250 238 223 212 207 203 208 200 200 201 203 207 206 215 215 216 210 204 203 196 195 190 190 186 174 164 167 154 139 109 177
271 266 243 238 225 216 210 209 206 202 202 191 187 169 175 205 211 209 205 202 197 199 192 187 184 183 186 183 170 153 144 190
276 275 268 253 241 230 218 219 214 218 201 195 199 204 206 217 213 214 209 200 197 194 191 189 187 186 188 186 177 152 132 153
318 326 258 266 256 240 234 219 216 208 200 207 210 220 220 204 203 205 201 193 194 195 189 187 192 190 186 186 168 162 158 146
309 309 322 271 286 292 273 233 218 206 207 210 210 216 219 211 202 196 195 194 188 193 190 188 185 184 186 187 182 167 164 138
348 328 325 339 286 259 267 243 243 219 212 215 217 219 213 214 208 201 192 188 190 198 187 185 176 182 184 171 181 178 163 154
336 335 316 311 309 271 244 242 243 229 220 224 223 223 219 219 208 200 203 201 199 180 184 171 158 160 168 159 156 173 148 132
324 324 322 315 309 304 260 241 240 236 226 227 224 224 221 218 216 209 201 193 188 174 169 165 165 156 160 160 158 153 141 125
320 315 316 314 310 301 278 245 253 252 242 229 223 216 218 218 208 205 196 184 164 173 168 165 159 159 160 151 149 143 132 118
321 317 311 307 305 302 294 285 269 273 267 233 222 217 213 210 213 205 190 169 169 171 168 162 166 153 157 151 147 145 135 124
309 313 320 317 310 307 308 305 298 293 273 239 222 218 209 206 206 201 176 169 162 165 156 153 152 151 152 147 136 127 130 125
306 320 324 328 325 320 318 317 310 304 289 229 219 215 211 206 187 181 159 159 153 155 154 154 153 148 136 121 110 106 102 101
301 311 318 318 320 321 325 321 316 305 288 240 224 215 206 193 162 161 165 163 152 152 158 156 149 142 136 132 134 135 132 134
298 304 311 316 319 325 326 323 319 308 301 269 229 176 166 152 155 161 158 157 160 155 152 151 148 146 147 145 140 135 131 125
285 298 304 311 317 323 322 319 321 291 278 261 239 169 169 175 161 161 154 161 152 150 156 153 151 149 144 138 139 144 143 140
283 292 296 307 314 320 317 319 317 303 271 243 189 217 195 172 166 162 159 153 155 158 157 155 149 141 141 138 137 138 136 134
276 297 304 306 308 305 307 319 317 308 278 248 175 166 179 175 180 167 160 156 161 159 157 154 145 148 141 136 131 132 131 139